Regional Weather Roundup
Issued by NWS

Home | Current Version | Previous Version | Text Only | Print | Product List | Glossary Off
Versions: 1 2 3 4 5 6 7 8 9 10 11 12 13 14 15 16 17 18 19 20 21 22 23 24 25 26 27 28 29 30 31 32 33 34 35 36 37 38 39 40 41 42 43 44 45 46 47 48 49 50

760
ASUS43 KMKX 230821
RWRWI

WISCONSIN REGIONAL WEATHER ROUNDUP
NATIONAL WEATHER SERVICE MILWAUKEE/SULLIVAN WI
200 AM CST MON JAN 23 2017

NOTE: "FAIR" INDICATES FEW OR NO CLOUDS BELOW 12,000 FEET WITH NO
SIGNIFICANT WEATHER AND/OR OBSTRUCTIONS TO VISIBILITY.

WIZ001-002-006>008-014>016-023>028-230900-
NORTHWEST WISCONSIN

CITY           SKY/WX    TMP DP  RH WIND       PRES   REMARKS
SUPERIOR ARPT  CLOUDY    35  35  99 CALM      29.75R
ASHLAND        CLOUDY    34  34 100 S6        29.75R WCI  29
HAYWARD        FOG       34  33  96 SW3       29.75R VSB 1/2
SIREN          FOG       35  34  99 W3        29.78R VSB 3/4
CUMBERLAND     FOG       32  32 100 W5        29.76R VSB 1/2 WCI  27
RICE LAKE      FOG       35  35 100 CALM      29.77R VSB 1/4
CHETEK         CLOUDY    34  34 100 CALM      29.76S FOG
LADYSMITH      FOG       35  34  98 W3        29.77R VSB 1/2
EAU CLAIRE     FOG       34  34 100 W3        29.77R VSB 1
MENOMONIE        N/A    N/A N/A N/A MISG        N/A
NEW RICHMOND   CLOUDY    34  34 100 W7        29.79R FOG     WCI  27
OSCEOLA        CLOUDY    34  34 100 W8        29.82R FOG     WCI  27
$$

WIZ003>005-009-010-017-018-230900-
NORTH CENTRAL WISCONSIN

CITY           SKY/WX    TMP DP  RH WIND       PRES   REMARKS
MANITOWISH WTR CLOUDY    32  32 100 CALM      29.72S FOG
ARBOR VITAE    CLOUDY    34  33  96 CALM      29.72S
WOODRUFF       CLOUDY    34  33  96 CALM      29.72S
RHINELANDER    CLOUDY    34  34 100 W3        29.73R
EAGLE RIVER    FOG       32  32 100 CALM      29.71S VSB 3/4
LAND O LAKES   CLOUDY    33  33 100 CALM      29.73R FOG
PHILLIPS       FOG       32  32 100 CALM      29.74R VSB 1/2
TOMAHAWK       CLOUDY    32  32  99 CALM      29.73S
MEDFORD        LGT RAIN  32  32 100 CALM      29.74R
MERRILL        CLOUDY    34  34 100 NW3         N/A
$$

WIZ029-030-035-036-043>047-230900-
CENTRAL WISCONSIN

CITY           SKY/WX    TMP DP  RH WIND       PRES   REMARKS
WAUSAU         CLOUDY    34  33  96 NW5       29.72S WCI  30
MOSINEE        CLOUDY    34  34 100 W5        29.74S WCI  30
MARSHFIELD     FOG       33  32  96 NW7       29.73S VSB 1/2 WCI  27
STEVENS POINT  CLOUDY    33  33 100 CALM      29.74S FOG
WAUPACA        CLOUDY    37  37  97 CALM      29.74F FOG
WAUTOMA        CLOUDY    36  34  93 W6        29.75S FOG     WCI  31
WISC RAPIDS    CLOUDY    34  34 100 NW5       29.75S FOG     WCI  30
CAMP DOUGLAS   CLOUDY    35  35  99 W6        29.76S WCI  30
$$

WIZ011>013-019>022-031-037>040-048>050-230900-
NORTHEAST WISCONSIN

CITY           SKY/WX    TMP DP  RH WIND       PRES   REMARKS
ANTIGO         CLOUDY    32  32 100 CALM      29.72S
SHAWANO        CLOUDY    38  37  94 CALM      29.74R
OCONTO         CLOUDY    34  33  99 CALM      29.73S VSB 1
STURGEON BAY   LGT RAIN  36  34  93 NW3       29.73R VSB 1/2
GREEN BAY      CLOUDY    37  37 100 NW6       29.73R FOG     WCI  32
MANITOWOC      FOG       36  36 100 NW3       29.73S VSB 3/4
APPLETON       CLOUDY    36  36 100 NW7       29.71S FOG     WCI  30
CLINTONVILLE   CLOUDY    36  34  93 NW3       29.73S
OSHKOSH        CLOUDY    35  34  96 W6        29.72S FOG     WCI  30
$$

WIZ032>034-041-042-053>061-230900-
SOUTHWEST WISCONSIN

CITY           SKY/WX    TMP DP  RH WIND       PRES   REMARKS
LA CROSSE      FOG       38  35  89 CALM      29.79S VSB 1/2
SPARTA         CLOUDY    34  34 100 CALM      29.78S FOG
VIROQUA        CLOUDY    34  34 100 W6        29.76S VSB 1/4 WCI  29
BOSCOBEL       CLOUDY    38  35  89 CALM      29.78S
PRAIRIE DU CHI CLOUDY    35  34  96 CALM      29.79S FOG
PLATTEVILLE    CLOUDY    36  36 100 NW9       29.77R WCI  29
$$

WIZ056-057-062-063-064-067-068-230900-
SOUTH CENTRAL WISCONSIN

CITY           SKY/WX    TMP DP  RH WIND       PRES   REMARKS
REEDSBURG      CLOUDY    35  35 100 W3        29.75S
BARABOO/DELLS  CLOUDY    34  34  99 W5        29.75S FOG     WCI  30
LONE ROCK      CLOUDY    35  34  96 W3        29.78R FOG
MINERAL POINT  CLOUDY    36  36 100 NW7       29.75S FOG     WCI  30
MADISON        CLOUDY    36  35  96 NW6       29.75S WCI  31
MIDDLETON      CLOUDY    37  37 100 NW6       29.75R WCI  32
WATERTOWN      CLOUDY    35  35 100 NW3       29.73S FOG
MONROE         CLOUDY    36  36 100 N5        29.74R FOG     WCI  32
JANESVILLE     CLOUDY    36  36 100 CALM      29.73S FOG
$$

WIZ051-052-058>065-066-070>072-230900-
SOUTHEAST WISCONSIN

CITY           SKY/WX    TMP DP  RH WIND       PRES   REMARKS
MILWAUKEE      CLOUDY    39  36  89 NW6       29.71F WCI  35
WAUKESHA       CLOUDY    34  34 100 W6        29.73S FOG     WCI  29
MILWAUKEE/TIMM CLOUDY    36  34  93 NW3       29.73S FOG
RACINE         CLOUDY    37  35  92 NW5       29.73R FOG     WCI  33
KENOSHA        CLOUDY    37  35  92 NW8       29.71S FOG     WCI  31
FOND DU LAC    CLOUDY    36  33  89 CALM      29.73S FOG
SHEBOYGAN      CLOUDY    37  35  92 NW6       29.72R WCI  32
WEST BEND      FOG       36  36 100 NW6       29.71F VSB 1/2 WCI  31
JUNEAU         CLOUDY    35  34  98 CALM      29.74S FOG
$$

LSZ147-162-230900-
LAKE SUPERIOR

STATION/POSITION TIME  TEMP    WIND        PRES    WAVE
                       AIR SEA DIR/SP/G            HT/PER
                 (UTC) (F)     (DEG/KT/KT) (MB)    (FT/S)
DEVILS ISLAND    0800   35     210/  5/  6 1007.9R
PORT WING        0740   35     210/  3/  5 1007.1R
SAXON HARBOR     0740   34     170/  3/  4 1007.5R
$$

LMZ867-665-643>646-230900-
LAKE MICHIGAN

STATION/POSITION TIME  TEMP    WIND        PRES    WAVE
                       AIR SEA DIR/SP/G            HT/PER
                 (UTC) (F)     (DEG/KT/KT) (MB)    (FT/S)
NORTHPORT PIER   0740   34        CALM     1006.8R
SISTER BAY       0705   33        CALM       N/A
KEWAUNEE LAKESHO 0754   36     310/  3/  5 1006.0F
SHEBOYGAN LAKESH 0800   37      10/  4/  5 1006.6R
PORT WASHINGTON  0730   38     300/  4/  6 1007.5S
KENOSHA   LAKESH 0800   37     320/  3/  6 1006.4
$$

TC  - TEMPERATURE IN CELSIUS
VSB - VISIBILITY IN STATUTE MILES
WCI - WIND CHILL INDEX
HX  - HEAT INDEX





USA.gov is the U.S. government's official web portal to all federal, state and local government web resources and services.